Temperature
4 4 4 4 3 3 3 2 2 1 2 3 3 3 3 3 3 3 3 3 3 3 2 2 2 2 2 2 3 3 3 3 3 3 3 3 4 4
4 4 3 3 3 3 3 2 2 1 1 2 2 2 2 2 2 2 2 2 3 2 2 2 2 2 2 2 3 3 3 3 3 3 3 3 3 4
4 3 3 3 2 2 2 2 1 1 1 1 2 2 2 2 2 2 2 2 2 2 2 2 2 2 2 2 2 3 3 3 3 3 3 3 3 3
3 3 3 2 2 2 2 1 1 1 1 1 1 2 2 2 2 2 2 2 2 2 2 2 2 2 2 2 2 2 2 2 2 2 3 3 3 3
3 2 2 2 2 2 1 1 1 1 1 1 1 1 1 1 1 1 2 1 1 1 1 2 2 1 2 2 2 2 2 2 2 2 2 2 2 2
2 2 2 2 2 1 1 1 1 1 1 0 0 0 0 1 1 1 1 1 1 1 1 1 1 1 1 1 1 1 2 2 2 2 2 2 2 2
2 2 2 2 1 1 1 1 1 0 0 0 0 -0 0 0 0 0 0 0 1 1 1 1 1 1 1 1 1 1 1 1 1 1 2 2 2 2
1 1 1 1 1 1 1 1 0 0 -0 -0 -0 -0 -0 -0 -0 -1 -1 -0 -0 0 0 0 0 0 1 1 1 1 1 1 1 1 1 1 2 2
1 1 1 1 1 1 0 0 0 0 -0 -1 -1 -1 -1 -1 -1 -1 -1 -1 -1 -0 -0 0 0 0 0 1 1 1 1 1 1 1 1 1 1 1
1 1 1 0 0 0 0 0 0 -0 -0 -1 -1 -1 -1 -1 -1 -1 -1 -1 -1 -1 -1 -1 -0 -0 0 0 1 1 1 1 1 1 1 1 1 1
0 0 0 0 -0 -0 -0 -0 -0 -0 -0 -0 -0 -1 -1 -1 -1 -1 -1 -1 -1 -1 -1 -1 -1 -1 -0 -0 0 0 0 0 0 0 0 1 1 1
0 -0 -0 -0 -0 -0 -1 -1 -1 -1 -1 -0 -0 -0 -1 -1 -1 -1 -1 -1 -2 -2 -1 -1 -1 -1 -1 -0 -0 -0 -0 -0 -0 -0 0 0 0 0
-0 -0 -0 -1 -1 -1 -1 -1 -1 -1 -1 -1 -1 -1 -1 -1 -1 -1 -2 -2 -2 -2 -2 -2 -2 -2 -2 -2 -1 -1 -1 -1 -1 -1 -0 -0 -0 -0
-1 -1 -1 -1 -1 -1 -1 -1 -1 -1 -1 -1 -1 -1 -1 -1 -1 -2 -2 -2 -2 -2 -2 -2 -2 -2 -2 -2 -2 -1 -1 -1 -1 -1 -1 -1 -1 -0
-1 -1 -1 -1 -1 -1 -1 -1 -2 -2 -2 -2 -2 -2 -2 -2 -2 -2 -2 -2 -2 -2 -2 -2 -2 -2 -2 -2 -2 -2 -2 -2 -1 -1 -1 -1 -1 -1
-2 -2 -2 -2 -2 -2 -2 -2 -2 -2 -2 -2 -2 -2 -2 -2 -2 -2 -2 -2 -2 -2 -2 -2 -2 -2 -2 -2 -2 -2 -2 -2 -2 -2 -2 -2 -1 -1
-2 -2 -2 -2 -2 -2 -2 -2 -2 -2 -2 -2 -2 -2 -2 -2 -2 -3 -3 -2 -3 -3 -2 -2 -2 -2 -2 -2 -2 -2 -2 -2 -2 -2 -2 -2 -2 -2
-3 -2 -2 -3 -3 -3 -3 -3 -3 -3 -3 -3 -3 -3 -3 -3 -3 -3 -3 -3 -3 -3 -3 -2 -2 -2 -2 -2 -2 -2 -2 -2 -2 -2 -2 -2 -2 -2
-3 -3 -3 -3 -3 -3 -3 -3 -3 -3 -3 -3 -3 -3 -3 -3 -3 -3 -3 -3 -3 -3 -3 -3 -3 -3 -3 -3 -2 -2 -3 -2 -2 -2 -2 -2 -2 -2
-3 -3 -3 -3 -3 -3 -3 -3 -3 -3 -3 -3 -3 -3 -3 -3 -3 -3 -3 -3 -3 -3 -3 -3 -3 -3 -3 -3 -3 -2 -2 -2 -2 -2 -2 -2 -2 -2
-4 -4 -4 -4 -4 -4 -4 -4 -3 -3 -3 -3 -3 -3 -3 -3 -3 -3 -3 -3 -3 -3 -3 -3 -3 -3 -3 -3 -3 -3 -2 -3 -3 -3 -2 -2 -3 -2
-4 -4 -4 -4 -4 -4 -4 -4 -4 -4 -4 -4 -4 -4 -4 -4 -4 -4 -4 -4 -4 -3 -3 -3 -3 -3 -3 -3 -3 -3 -3 -3 -3 -3 -3 -3 -3 -3
-5 -4 -4 -4 -4 -4 -4 -4 -4 -4 -4 -4 -4 -4 -4 -4 -4 -4 -4 -4 -3 -3 -3 -3 -3 -3 -3 -3 -3 -3 -3 -3 -3 -3 -3 -3 -3 -3
Wind_Speed
3 4 4 4 4 5 5 6 6 9 11 10 8 10 12 13 15 16 16 19 21 21 21 21 21 21 21 21 21 21 21 21 20 19 19 19 19 20
3 4 4 4 4 4 5 6 7 8 9 9 11 12 13 13 16 16 16 20 19 19 20 21 21 20 20 21 20 20 20 20 19 18 19 18 18 18
4 5 5 6 5 5 5 6 7 8 11 11 11 12 14 14 14 14 15 15 15 17 19 20 20 20 20 20 20 19 19 18 18 18 18 18 17 17
5 5 6 5 6 6 6 7 7 8 10 13 12 11 13 14 14 14 14 13 14 16 18 19 19 19 19 19 18 18 18 17 17 17 17 16 16 16
5 6 6 6 7 7 7 8 7 8 9 10 12 11 11 11 13 13 13 12 13 14 16 16 17 18 17 17 17 18 18 17 17 17 16 15 15 15
6 6 7 7 8 8 7 8 8 9 9 9 10 10 10 11 11 11 12 12 11 11 12 14 15 15 15 15 16 17 17 17 16 15 15 14 14 14
6 6 7 8 9 8 8 8 9 8 9 9 9 10 10 10 10 10 12 12 12 8 10 10 10 10 11 12 13 16 17 16 15 14 14 12 12 12
6 6 7 7 8 10 12 12 11 10 10 9 9 10 12 12 11 10 11 11 9 8 9 10 9 9 9 9 13 16 16 16 15 14 13 13 12 12
6 6 6 6 8 8 10 11 11 11 12 11 11 11 12 12 12 12 11 11 11 10 9 8 8 8 9 10 14 15 15 15 15 14 13 13 12 12
6 6 7 7 7 8 9 9 9 9 10 9 10 11 11 11 11 10 11 11 10 8 7 6 8 8 8 8 12 14 15 14 14 14 14 13 12 11
6 6 7 7 9 10 9 9 10 9 9 11 13 13 14 14 11 8 8 7 8 7 5 5 6 8 7 6 8 12 14 15 14 14 14 14 12 10
5 6 7 8 10 10 8 9 10 10 10 10 10 11 10 9 9 7 6 6 7 6 5 5 6 6 5 5 6 8 10 12 14 14 14 14 13 8
5 5 6 9 10 10 9 8 10 11 10 9 9 9 8 7 6 6 6 5 6 5 5 5 5 5 5 6 6 7 8 8 9 10 11 13 13 10
5 5 6 9 10 10 9 10 11 10 7 7 7 7 7 7 7 7 7 7 7 7 8 6 4 5 5 6 6 7 7 7 7 7 8 10 11 11
5 8 9 9 9 8 9 10 9 6 6 6 7 7 7 7 7 7 7 6 7 6 6 6 4 5 4 5 5 6 6 6 7 6 7 7 7 7
6 7 8 8 7 8 8 7 6 6 6 6 7 6 6 6 6 6 5 6 5 5 5 5 5 5 4 5 5 6 6 5 6 7 6 6 6 6
6 5 5 5 5 6 6 6 6 6 6 6 5 6 6 6 6 5 5 5 4 5 6 5 5 4 4 4 4 5 5 5 5 6 5 5 6 6
5 4 5 5 6 6 6 6 6 6 6 6 6 5 6 6 6 5 5 4 4 5 5 5 5 4 3 2 3 4 4 5 5 5 5 4 5 6
4 4 5 6 6 6 6 6 6 6 6 6 6 6 6 6 5 5 5 4 4 4 4 4 4 4 4 4 4 4 4 5 5 4 5 4 4 5
4 5 5 6 6 6 6 6 6 6 6 6 6 6 5 5 5 5 4 4 4 4 4 4 4 4 3 4 4 4 6 4 4 4 5 4 4 4
5 5 6 6 6 6 6 6 6 6 6 6 6 6 5 5 5 5 4 5 4 3 4 4 5 6 4 2 2 3 4 6 5 4 4 4 4 5
5 5 6 6 6 6 6 6 6 6 6 6 6 5 5 5 5 5 4 3 3 3 4 4 4 4 3 2 3 4 5 5 7 8 8 5 2 3
5 6 6 6 6 6 6 6 7 6 6 6 5 5 5 4 4 3 3 3 3 3 3 3 3 3 3 3 3 4 5 5 5 5 6 8 6 4
Wind_Direction
275 278 283 286 285 284 283 285 292 302 306 309 314 313 319 314 313 313 311 311 310 310 311 312 313 312 313 310 307 306 306 307 306 304 301 300 301 300
279 279 285 289 287 283 280 279 276 282 289 299 306 309 312 310 311 311 309 308 305 309 313 314 314 314 315 316 311 307 306 305 304 303 302 302 303 305
278 280 284 289 289 288 286 281 279 278 284 294 300 308 310 310 312 313 312 311 309 309 313 315 315 316 317 318 318 316 313 309 306 305 303 304 305 306
278 280 284 290 290 291 289 287 285 282 285 293 300 307 309 311 311 311 314 312 310 310 313 314 315 318 319 320 321 322 322 320 315 310 307 305 307 308
278 281 284 288 291 293 292 290 289 288 286 289 296 303 306 311 314 313 314 314 313 312 313 314 316 320 322 323 325 328 327 325 322 320 314 309 309 309
280 280 281 284 290 295 293 292 294 293 294 295 297 304 307 313 316 317 318 319 317 316 317 317 320 322 324 326 329 331 331 329 328 327 323 316 312 312
283 283 284 288 292 294 293 295 296 295 298 298 300 304 310 318 318 315 313 316 316 317 319 320 323 324 328 331 334 336 337 339 337 335 333 329 326 322
284 289 290 286 289 291 293 295 294 294 297 297 299 303 307 311 312 313 314 317 314 322 320 315 321 323 327 328 334 337 341 344 342 342 342 341 339 336
283 287 291 294 296 294 293 291 288 288 288 289 292 298 302 308 309 309 310 309 304 310 315 306 318 319 324 329 336 340 345 347 348 348 346 344 341 338
285 288 292 296 299 303 301 297 295 294 292 289 290 296 299 304 303 300 301 302 299 303 315 301 313 315 318 324 337 344 348 349 349 350 349 346 341 337
292 292 292 295 305 310 305 302 302 302 298 293 294 297 301 304 307 308 309 311 308 311 327 310 310 315 311 317 336 344 348 353 355 354 355 356 355 351
302 299 296 304 311 311 304 301 302 306 309 308 305 305 305 305 308 303 302 306 308 306 327 320 312 324 319 315 331 341 342 347 352 355 359 1 3 0
301 301 303 312 313 311 306 299 303 308 306 308 308 311 314 315 314 310 305 300 301 295 313 317 310 317 309 309 319 332 339 342 347 351 358 3 6 7
297 300 305 311 310 308 306 309 311 310 305 308 309 312 315 317 316 314 308 301 292 292 300 306 298 307 312 313 316 326 332 341 345 347 352 358 4 9
299 305 308 308 308 306 307 312 312 306 305 305 307 310 313 311 313 313 313 310 306 305 306 308 302 301 303 306 312 320 324 333 345 349 352 355 357 360
310 308 308 307 308 309 312 312 309 306 304 302 304 309 313 314 315 318 315 320 321 323 323 318 313 316 316 310 309 317 326 327 337 344 347 353 0 4
317 314 316 319 320 321 319 319 318 315 311 311 310 314 315 315 316 319 316 320 321 321 326 332 326 313 314 320 312 320 327 331 336 343 347 358 4 6
318 312 312 312 313 316 316 317 317 318 318 315 313 314 313 314 316 318 320 322 321 320 324 329 332 328 316 340 333 318 328 333 338 347 354 3 6 7
312 307 305 306 308 309 309 311 313 315 317 317 314 312 311 312 313 316 320 321 323 323 326 331 333 334 344 346 353 353 332 333 344 356 3 4 1 359
308 302 302 304 306 307 307 308 311 315 317 317 314 311 310 309 310 313 320 322 322 327 334 337 334 331 328 323 321 334 351 344 347 351 354 358 3 355
301 300 301 303 305 306 307 308 310 311 314 315 313 312 311 311 311 315 319 325 324 329 332 333 329 323 307 307 340 359 6 17 19 357 347 356 7 16
299 299 300 301 303 304 305 306 307 308 312 310 310 311 312 311 311 315 318 321 324 327 330 340 345 349 358 16 20 13 9 13 29 33 30 28 13 14
301 301 301 303 304 304 304 304 304 304 306 306 306 307 308 310 313 316 317 321 334 342 352 0 3 3 7 16 23 21 16 12 16 28 35 35 44 33
Height
1513 1512 1510 1508 1506 1504 1501 1498 1495 1489 1482 1479 1476 1472 1468 1463 1458 1454 1449 1445 1440 1436 1432 1428 1424 1420 1416 1412 1409 1405 1402 1399 1396 1393 1390 1388 1385 1382
1510 1508 1507 1505 1502 1500 1498 1495 1492 1488 1482 1476 1472 1468 1464 1459 1455 1450 1446 1441 1436 1432 1428 1424 1419 1415 1411 1407 1403 1400 1397 1393 1390 1388 1385 1382 1379 1376
1507 1505 1503 1501 1499 1496 1494 1491 1488 1485 1479 1473 1469 1465 1460 1456 1451 1447 1442 1437 1432 1428 1423 1419 1415 1411 1406 1402 1398 1394 1391 1388 1385 1382 1379 1377 1374 1372
1503 1501 1500 1497 1495 1492 1490 1487 1484 1481 1477 1470 1465 1461 1457 1452 1448 1443 1438 1433 1429 1424 1419 1415 1411 1406 1402 1398 1394 1390 1386 1383 1380 1377 1374 1372 1369 1367
1500 1498 1496 1494 1491 1489 1486 1483 1480 1477 1473 1468 1462 1458 1453 1449 1444 1439 1435 1430 1425 1420 1416 1411 1407 1403 1398 1394 1390 1386 1382 1379 1376 1372 1369 1367 1365 1363
1496 1494 1492 1490 1487 1485 1482 1479 1476 1472 1469 1464 1459 1455 1451 1446 1442 1436 1430 1426 1421 1417 1413 1408 1404 1400 1395 1391 1387 1383 1379 1375 1371 1368 1365 1363 1361 1359
1492 1490 1488 1486 1484 1481 1478 1475 1472 1469 1465 1461 1456 1452 1447 1443 1439 1433 1428 1423 1418 1414 1409 1405 1401 1397 1392 1388 1384 1380 1376 1372 1368 1365 1362 1360 1358 1356
1488 1486 1484 1482 1479 1477 1474 1471 1469 1465 1461 1457 1453 1449 1445 1441 1436 1431 1426 1421 1415 1412 1407 1403 1399 1394 1390 1386 1382 1378 1374 1370 1366 1363 1361 1358 1356 1354
1484 1482 1480 1478 1476 1473 1470 1467 1464 1461 1458 1455 1450 1446 1442 1438 1434 1429 1424 1420 1415 1410 1406 1400 1397 1393 1389 1385 1381 1377 1373 1369 1366 1363 1360 1357 1355 1353
1481 1479 1477 1474 1472 1469 1466 1463 1460 1457 1454 1450 1447 1443 1439 1435 1431 1427 1422 1417 1413 1409 1405 1400 1395 1392 1388 1384 1381 1377 1373 1369 1366 1362 1359 1357 1354 1352
1477 1475 1473 1471 1468 1466 1463 1459 1456 1453 1450 1447 1443 1439 1435 1432 1428 1424 1419 1415 1410 1407 1404 1399 1394 1390 1387 1383 1380 1377 1373 1369 1366 1363 1359 1357 1354 1352
1473 1471 1469 1467 1465 1462 1459 1456 1452 1449 1446 1443 1439 1436 1432 1428 1425 1421 1417 1413 1409 1405 1402 1399 1394 1390 1386 1383 1380 1377 1373 1370 1366 1363 1360 1358 1355 1352
1469 1467 1465 1463 1461 1458 1456 1453 1449 1446 1443 1439 1436 1432 1428 1425 1422 1419 1415 1412 1408 1404 1402 1398 1394 1391 1388 1383 1380 1377 1374 1370 1367 1364 1361 1359 1356 1354
1466 1464 1462 1459 1457 1455 1452 1449 1446 1443 1440 1436 1432 1429 1425 1422 1419 1416 1413 1410 1407 1404 1400 1398 1395 1392 1388 1384 1380 1377 1374 1372 1368 1365 1363 1360 1358 1355
1463 1461 1458 1456 1453 1451 1448 1445 1442 1439 1436 1433 1429 1426 1423 1420 1416 1413 1411 1408 1405 1402 1399 1397 1394 1392 1389 1385 1382 1378 1375 1372 1369 1367 1364 1362 1359 1357
1459 1457 1455 1452 1450 1447 1445 1442 1439 1436 1433 1430 1427 1423 1420 1417 1414 1411 1408 1406 1403 1400 1399 1396 1394 1392 1388 1386 1382 1379 1376 1374 1371 1369 1366 1364 1361 1359
1456 1454 1452 1449 1447 1444 1441 1439 1436 1433 1431 1427 1424 1421 1418 1415 1413 1410 1407 1405 1402 1399 1397 1395 1393 1391 1389 1386 1382 1380 1377 1375 1373 1370 1368 1365 1363 1360
1453 1451 1449 1446 1444 1441 1438 1436 1433 1431 1428 1425 1422 1419 1416 1414 1411 1409 1406 1404 1401 1399 1397 1395 1393 1390 1388 1386 1384 1381 1378 1376 1374 1371 1369 1366 1364 1363
1451 1448 1446 1444 1442 1439 1436 1433 1431 1428 1426 1423 1420 1417 1415 1412 1410 1407 1405 1403 1401 1399 1397 1395 1393 1391 1388 1386 1385 1383 1380 1377 1375 1373 1370 1368 1366 1365
1448 1446 1443 1441 1439 1437 1434 1431 1429 1426 1423 1421 1418 1416 1413 1411 1408 1406 1404 1402 1400 1398 1396 1395 1393 1391 1389 1388 1385 1383 1381 1379 1376 1374 1372 1370 1369 1367
1445 1443 1441 1439 1436 1434 1432 1429 1426 1424 1421 1419 1416 1414 1412 1410 1407 1406 1404 1402 1400 1398 1396 1395 1393 1392 1390 1388 1386 1384 1383 1381 1379 1376 1374 1372 1370 1368
1442 1440 1438 1436 1434 1432 1429 1427 1424 1421 1419 1417 1415 1412 1410 1409 1407 1405 1404 1402 1400 1398 1397 1395 1394 1392 1391 1389 1387 1386 1384 1383 1381 1379 1377 1375 1373 1371
1438 1437 1435 1433 1431 1429 1427 1424 1422 1419 1417 1415 1413 1411 1409 1408 1406 1405 1403 1402 1400 1399 1397 1396 1395 1393 1392 1390 1389 1388 1386 1384 1383 1381 1379 1378 1376 1374